Year,Month,Day,Hour,Minute,Value (Times are PST for temperature in C)
2014,11,10,00,00,9.10
2014,11,10,00,01,9.10
2014,11,10,00,02,9.10
2014,11,10,00,03,9.10
2014,11,10,00,04,9.10
2014,11,10,00,05,9.10
2014,11,10,00,06,9.10
2014,11,10,00,07,9.10
2014,11,10,00,08,9.00
2014,11,10,00,09,9.00
2014,11,10,00,10,9.00
2014,11,10,00,11,9.00
2014,11,10,00,12,9.00
2014,11,10,00,13,8.90
2014,11,10,00,14,8.90
2014,11,10,00,15,8.90
2014,11,10,00,16,8.90
2014,11,10,00,17,8.90
2014,11,10,00,18,8.90
2014,11,10,00,19,8.90
2014,11,10,00,20,8.90
2014,11,10,00,21,8.90
2014,11,10,00,22,8.90
2014,11,10,00,23,8.90
2014,11,10,00,24,8.90
2014,11,10,00,25,8.90
2014,11,10,00,26,8.90
2014,11,10,00,27,8.90
2014,11,10,00,28,8.90
2014,11,10,00,29,8.90
2014,11,10,00,30,8.90
2014,11,10,00,31,8.80
2014,11,10,00,32,8.80
2014,11,10,00,33,8.80
2014,11,10,00,34,8.80
2014,11,10,00,35,8.80
2014,11,10,00,36,8.80
2014,11,10,00,37,8.80
2014,11,10,00,38,8.80
2014,11,10,00,39,8.80
2014,11,10,00,40,8.70
2014,11,10,00,41,8.70
2014,11,10,00,42,8.70
2014,11,10,00,43,8.70
2014,11,10,00,44,8.70
2014,11,10,00,45,8.70
2014,11,10,00,46,8.70
2014,11,10,00,47,8.70
2014,11,10,00,48,8.70
2014,11,10,00,49,8.70
2014,11,10,00,50,8.70
2014,11,10,00,51,8.70
2014,11,10,00,52,8.70
2014,11,10,00,53,8.70
2014,11,10,00,54,8.70
2014,11,10,00,55,8.70
2014,11,10,00,56,8.70
2014,11,10,00,57,8.70
2014,11,10,00,58,8.70
2014,11,10,00,59,8.70
2014,11,10,01,00,8.70
2014,11,10,01,01,8.70
2014,11,10,01,02,8.70
2014,11,10,01,03,8.70
2014,11,10,01,04,8.60
2014,11,10,01,05,8.60
2014,11,10,01,06,8.60
2014,11,10,01,07,8.60
2014,11,10,01,08,8.60
2014,11,10,01,09,8.50
2014,11,10,01,10,8.50
2014,11,10,01,11,8.50
2014,11,10,01,12,8.50
2014,11,10,01,13,8.50
2014,11,10,01,14,8.50
2014,11,10,01,15,8.40
2014,11,10,01,16,8.40
2014,11,10,01,17,8.40
2014,11,10,01,18,8.40
2014,11,10,01,19,8.40
2014,11,10,01,20,8.30
2014,11,10,01,21,8.30
2014,11,10,01,22,8.30
2014,11,10,01,23,8.20
2014,11,10,01,24,8.20
2014,11,10,01,25,8.20
2014,11,10,01,26,8.10
2014,11,10,01,27,8.10
2014,11,10,01,28,8.00
2014,11,10,01,29,7.90
2014,11,10,01,30,7.90
2014,11,10,01,31,7.80
2014,11,10,01,32,7.80
2014,11,10,01,33,7.70
2014,11,10,01,34,7.70
2014,11,10,01,35,7.60
2014,11,10,01,36,7.50
2014,11,10,01,37,7.50
2014,11,10,01,38,7.40
2014,11,10,01,39,7.40
2014,11,10,01,40,7.30
2014,11,10,01,41,7.30
2014,11,10,01,42,7.30
2014,11,10,01,43,7.20
2014,11,10,01,44,7.20
2014,11,10,01,45,7.10
2014,11,10,01,46,7.10
2014,11,10,01,47,7.10
2014,11,10,01,48,7.00
2014,11,10,01,49,7.00
2014,11,10,01,50,7.00
2014,11,10,01,51,6.90
2014,11,10,01,52,6.90
2014,11,10,01,53,6.90
2014,11,10,01,54,6.90
2014,11,10,01,55,6.90
2014,11,10,01,56,6.80
2014,11,10,01,57,6.80
2014,11,10,01,58,6.80
2014,11,10,01,59,6.80
2014,11,10,02,00,6.80
2014,11,10,02,01,6.80
2014,11,10,02,02,6.90
2014,11,10,02,03,6.90
2014,11,10,02,04,6.90
2014,11,10,02,05,6.90
2014,11,10,02,06,7.00
2014,11,10,02,07,7.00
2014,11,10,02,08,7.00
2014,11,10,02,09,7.10
2014,11,10,02,10,7.10
2014,11,10,02,11,7.10
2014,11,10,02,12,7.20
2014,11,10,02,13,7.20
2014,11,10,02,14,7.30
2014,11,10,02,15,7.30
2014,11,10,02,16,7.30
2014,11,10,02,17,7.30
2014,11,10,02,18,7.40
2014,11,10,02,19,7.40
2014,11,10,02,20,7.40
2014,11,10,02,21,7.40
2014,11,10,02,22,7.50
2014,11,10,02,23,7.50
2014,11,10,02,24,7.60
2014,11,10,02,25,7.60
2014,11,10,02,26,7.70
2014,11,10,02,27,7.70
2014,11,10,02,28,7.80
2014,11,10,02,29,7.80
2014,11,10,02,30,7.80
2014,11,10,02,31,7.80
2014,11,10,02,32,7.80
2014,11,10,02,33,7.80
2014,11,10,02,34,7.80
2014,11,10,02,35,7.70
2014,11,10,02,36,7.70
2014,11,10,02,37,7.70
2014,11,10,02,38,7.60
2014,11,10,02,39,7.60
2014,11,10,02,40,7.60
2014,11,10,02,41,7.60
2014,11,10,02,42,7.50
2014,11,10,02,43,7.50
2014,11,10,02,44,7.50
2014,11,10,02,45,7.40
2014,11,10,02,46,7.40
2014,11,10,02,47,7.40
2014,11,10,02,48,7.40
2014,11,10,02,49,7.30
2014,11,10,02,50,7.30
2014,11,10,02,51,7.30
2014,11,10,02,52,7.30
2014,11,10,02,53,7.30
2014,11,10,02,54,7.30
2014,11,10,02,55,7.30
2014,11,10,02,56,7.30
2014,11,10,02,57,7.30
2014,11,10,02,58,7.30
2014,11,10,02,59,7.30
2014,11,10,03,00,7.30
2014,11,10,03,01,7.30
2014,11,10,03,02,7.30
2014,11,10,03,03,7.30
2014,11,10,03,04,7.30
2014,11,10,03,05,7.30
2014,11,10,03,06,7.30
2014,11,10,03,07,7.30
2014,11,10,03,08,7.30
2014,11,10,03,09,7.30
2014,11,10,03,10,7.30
2014,11,10,03,11,7.30
2014,11,10,03,12,7.40
2014,11,10,03,13,7.30
2014,11,10,03,14,7.30
2014,11,10,03,15,7.30
2014,11,10,03,16,7.30
2014,11,10,03,17,7.30
2014,11,10,03,18,7.30
2014,11,10,03,19,7.30
2014,11,10,03,20,7.30
2014,11,10,03,21,7.30
2014,11,10,03,22,7.30
2014,11,10,03,23,7.30
2014,11,10,03,24,7.30
2014,11,10,03,25,7.30
2014,11,10,03,26,7.30
2014,11,10,03,27,7.30
2014,11,10,03,28,7.30
2014,11,10,03,29,7.20
2014,11,10,03,30,7.20
2014,11,10,03,31,7.20
2014,11,10,03,32,7.20
2014,11,10,03,33,7.20
2014,11,10,03,34,7.20
2014,11,10,03,35,7.20
2014,11,10,03,36,7.10
2014,11,10,03,37,7.10
2014,11,10,03,38,7.10
2014,11,10,03,39,7.10
2014,11,10,03,40,7.10
2014,11,10,03,41,7.00
2014,11,10,03,42,7.00
2014,11,10,03,43,7.00
2014,11,10,03,44,6.90
2014,11,10,03,45,6.90
2014,11,10,03,46,6.90
2014,11,10,03,47,6.90
2014,11,10,03,48,6.90
2014,11,10,03,49,6.90
2014,11,10,03,50,6.90
2014,11,10,03,51,6.90
2014,11,10,03,52,6.90
2014,11,10,03,53,6.80
2014,11,10,03,54,6.80
2014,11,10,03,55,6.80
2014,11,10,03,56,6.80
2014,11,10,03,57,6.80
2014,11,10,03,58,6.80
2014,11,10,03,59,6.80
2014,11,10,04,00,6.70
2014,11,10,04,01,6.70
2014,11,10,04,02,6.70
2014,11,10,04,03,6.70
2014,11,10,04,04,6.60
2014,11,10,04,05,6.60
2014,11,10,04,06,6.60
2014,11,10,04,07,6.60
2014,11,10,04,08,6.60
2014,11,10,04,09,6.60
2014,11,10,04,10,6.50
2014,11,10,04,11,6.50
2014,11,10,04,12,6.50
2014,11,10,04,13,6.50
2014,11,10,04,14,6.40
2014,11,10,04,15,6.40
2014,11,10,04,16,6.40
2014,11,10,04,17,6.40
2014,11,10,04,18,6.40
2014,11,10,04,19,6.40
2014,11,10,04,20,6.30
2014,11,10,04,21,6.30
2014,11,10,04,22,6.30
2014,11,10,04,23,6.30
2014,11,10,04,24,6.30
2014,11,10,04,25,6.30
2014,11,10,04,26,6.30
2014,11,10,04,27,6.30
2014,11,10,04,28,6.30
2014,11,10,04,29,6.30
2014,11,10,04,30,6.20
2014,11,10,04,31,6.20
2014,11,10,04,32,6.20
2014,11,10,04,33,6.20
2014,11,10,04,34,6.20
2014,11,10,04,35,6.20
2014,11,10,04,36,6.20
2014,11,10,04,37,6.20
2014,11,10,04,38,6.10
2014,11,10,04,39,6.10
2014,11,10,04,40,6.10
2014,11,10,04,41,6.10
2014,11,10,04,42,6.00
2014,11,10,04,43,6.00
2014,11,10,04,44,6.00
2014,11,10,04,45,5.90
2014,11,10,04,46,5.90
2014,11,10,04,47,5.90
2014,11,10,04,48,5.90
2014,11,10,04,49,5.90
2014,11,10,04,50,5.80
2014,11,10,04,51,5.80
2014,11,10,04,52,5.80
2014,11,10,04,53,5.70
2014,11,10,04,54,5.70
2014,11,10,04,55,5.70
2014,11,10,04,56,5.70
2014,11,10,04,57,5.60
2014,11,10,04,58,5.60
2014,11,10,04,59,5.60
2014,11,10,05,00,5.50
2014,11,10,05,01,5.50
2014,11,10,05,02,5.50
2014,11,10,05,03,5.50
2014,11,10,05,04,5.40
2014,11,10,05,05,5.40
2014,11,10,05,06,5.40
2014,11,10,05,07,5.40
2014,11,10,05,08,5.40
2014,11,10,05,09,5.40
2014,11,10,05,10,5.40
2014,11,10,05,11,5.40
2014,11,10,05,12,5.40
2014,11,10,05,13,5.40
2014,11,10,05,14,5.40
2014,11,10,05,15,5.30
2014,11,10,05,16,5.30
2014,11,10,05,17,5.30
2014,11,10,05,18,5.30
2014,11,10,05,19,5.20
2014,11,10,05,20,5.20
2014,11,10,05,21,5.20
2014,11,10,05,22,5.20
2014,11,10,05,23,5.20
2014,11,10,05,24,5.20
2014,11,10,05,25,5.20
2014,11,10,05,26,5.20
2014,11,10,05,27,5.20
2014,11,10,05,28,5.20
2014,11,10,05,29,5.20
2014,11,10,05,30,5.10
2014,11,10,05,31,5.10
2014,11,10,05,32,5.10
2014,11,10,05,33,5.10
2014,11,10,05,34,5.10
2014,11,10,05,35,5.10
2014,11,10,05,36,5.10
2014,11,10,05,37,5.10
2014,11,10,05,38,5.10
2014,11,10,05,39,5.00
2014,11,10,05,40,5.00
2014,11,10,05,41,5.00
2014,11,10,05,42,5.00
2014,11,10,05,43,5.10
2014,11,10,05,44,5.00
2014,11,10,05,45,5.00
2014,11,10,05,46,5.00
2014,11,10,05,47,5.00
2014,11,10,05,48,5.00
2014,11,10,05,49,4.90
2014,11,10,05,50,4.90
2014,11,10,05,51,4.90
2014,11,10,05,52,4.90
2014,11,10,05,53,4.90
2014,11,10,05,54,4.80
2014,11,10,05,55,4.80
2014,11,10,05,56,4.80
2014,11,10,05,57,4.70
2014,11,10,05,58,4.70
2014,11,10,05,59,4.70
2014,11,10,06,00,4.70
2014,11,10,06,01,4.70
2014,11,10,06,02,4.70
2014,11,10,06,03,4.70
2014,11,10,06,04,4.70
2014,11,10,06,05,4.70
2014,11,10,06,06,4.70
2014,11,10,06,07,4.70
2014,11,10,06,08,4.70
2014,11,10,06,09,4.70
2014,11,10,06,10,4.70
2014,11,10,06,11,4.70
2014,11,10,06,12,4.60
2014,11,10,06,13,4.60
2014,11,10,06,14,4.60
2014,11,10,06,15,4.60
2014,11,10,06,16,4.60
2014,11,10,06,17,4.60
2014,11,10,06,18,4.50
2014,11,10,06,19,4.50
2014,11,10,06,20,4.50
2014,11,10,06,21,4.50
2014,11,10,06,22,4.50
2014,11,10,06,23,4.50
2014,11,10,06,24,4.50
2014,11,10,06,25,4.50
2014,11,10,06,26,4.50
2014,11,10,06,27,4.50
2014,11,10,06,28,4.60
2014,11,10,06,29,4.60
2014,11,10,06,30,4.60
2014,11,10,06,31,4.60
2014,11,10,06,32,4.60
2014,11,10,06,33,4.60
2014,11,10,06,34,4.60
2014,11,10,06,35,4.60
2014,11,10,06,36,4.60
2014,11,10,06,37,4.70
2014,11,10,06,38,4.70
2014,11,10,06,39,4.70
2014,11,10,06,40,4.60
2014,11,10,06,41,4.60
2014,11,10,06,42,4.60
2014,11,10,06,43,4.60
2014,11,10,06,44,4.60
2014,11,10,06,45,4.60
2014,11,10,06,46,4.50
2014,11,10,06,47,4.50
2014,11,10,06,48,4.50
2014,11,10,06,49,4.40
2014,11,10,06,50,4.40
2014,11,10,06,51,4.40
2014,11,10,06,52,4.30
2014,11,10,06,53,4.30
2014,11,10,06,54,4.30
2014,11,10,06,55,4.30
2014,11,10,06,56,4.40
2014,11,10,06,57,4.40
2014,11,10,06,58,4.40
2014,11,10,06,59,4.50
2014,11,10,07,00,4.50
2014,11,10,07,01,4.50
2014,11,10,07,02,4.50
2014,11,10,07,03,4.50
2014,11,10,07,04,4.50
2014,11,10,07,05,4.50
2014,11,10,07,06,4.60
2014,11,10,07,07,4.60
2014,11,10,07,08,4.60
2014,11,10,07,09,4.60
2014,11,10,07,10,4.60
2014,11,10,07,11,4.60
2014,11,10,07,12,4.60
2014,11,10,07,13,4.70
2014,11,10,07,14,4.70
2014,11,10,07,15,4.70
2014,11,10,07,16,4.70
2014,11,10,07,17,4.70
2014,11,10,07,18,4.70
2014,11,10,07,19,4.70
2014,11,10,07,20,4.70
2014,11,10,07,21,4.80
2014,11,10,07,22,4.80
2014,11,10,07,23,4.80
2014,11,10,07,24,4.80
2014,11,10,07,25,4.80
2014,11,10,07,26,4.80
2014,11,10,07,27,4.80
2014,11,10,07,28,4.80
2014,11,10,07,29,4.80
2014,11,10,07,30,4.80
2014,11,10,07,31,4.90
2014,11,10,07,32,4.90
2014,11,10,07,33,4.90
2014,11,10,07,34,4.90
2014,11,10,07,35,4.90
2014,11,10,07,36,5.00
2014,11,10,07,37,5.00
2014,11,10,07,38,5.00
2014,11,10,07,39,5.10
2014,11,10,07,40,5.10
2014,11,10,07,41,5.20
2014,11,10,07,42,5.30
2014,11,10,07,43,5.30
2014,11,10,07,44,5.40
2014,11,10,07,45,5.50
2014,11,10,07,46,5.50
2014,11,10,07,47,5.60
2014,11,10,07,48,5.60
2014,11,10,07,49,5.70
2014,11,10,07,50,5.70
2014,11,10,07,51,5.70
2014,11,10,07,52,5.80
2014,11,10,07,53,5.80
2014,11,10,07,54,5.90
2014,11,10,07,55,5.90
2014,11,10,07,56,6.00
2014,11,10,07,57,6.10
2014,11,10,07,58,6.10
2014,11,10,07,59,6.20
2014,11,10,08,00,6.30
2014,11,10,08,01,6.30
2014,11,10,08,02,6.30
2014,11,10,08,03,6.40
2014,11,10,08,04,6.40
2014,11,10,08,05,6.50
2014,11,10,08,06,6.50
2014,11,10,08,07,6.50
2014,11,10,08,08,6.60
2014,11,10,08,09,6.60
2014,11,10,08,10,6.70
2014,11,10,08,11,6.70
2014,11,10,08,12,6.70
2014,11,10,08,13,6.70
2014,11,10,08,14,6.80
2014,11,10,08,15,6.80
2014,11,10,08,16,6.80
2014,11,10,08,17,6.80
2014,11,10,08,18,6.80
2014,11,10,08,19,6.80
2014,11,10,08,20,6.90
2014,11,10,08,21,6.90
2014,11,10,08,22,6.90
2014,11,10,08,23,6.90
2014,11,10,08,24,6.90
2014,11,10,08,25,7.00
2014,11,10,08,26,7.00
2014,11,10,08,27,7.10
2014,11,10,08,28,7.10
2014,11,10,08,29,7.20
2014,11,10,08,30,7.20
2014,11,10,08,31,7.20
2014,11,10,08,32,7.20
2014,11,10,08,33,7.30
2014,11,10,08,34,7.30
2014,11,10,08,35,7.30
2014,11,10,08,36,7.30
2014,11,10,08,37,7.30
2014,11,10,08,38,7.30
2014,11,10,08,39,7.30
2014,11,10,08,40,7.30
2014,11,10,08,41,7.30
2014,11,10,08,42,7.30
2014,11,10,08,43,7.20
2014,11,10,08,44,7.20
2014,11,10,08,45,7.20
2014,11,10,08,46,7.20
2014,11,10,08,47,7.30
2014,11,10,08,48,7.30
2014,11,10,08,49,7.30
2014,11,10,08,50,7.30
2014,11,10,08,51,7.40
2014,11,10,08,52,7.40
2014,11,10,08,53,7.50
2014,11,10,08,54,7.50
2014,11,10,08,55,7.60
2014,11,10,08,56,7.60
2014,11,10,08,57,7.70
2014,11,10,08,58,7.70
2014,11,10,08,59,7.70
2014,11,10,09,00,7.80
2014,11,10,09,01,7.80
2014,11,10,09,02,7.90
2014,11,10,09,03,7.90
2014,11,10,09,04,7.90
2014,11,10,09,05,7.90
2014,11,10,09,06,8.00
2014,11,10,09,07,8.00
2014,11,10,09,08,8.00
2014,11,10,09,09,8.10
2014,11,10,09,10,8.10
2014,11,10,09,11,8.10
2014,11,10,09,12,8.10
2014,11,10,09,13,8.20
2014,11,10,09,14,8.20
2014,11,10,09,15,8.30
2014,11,10,09,16,8.30
2014,11,10,09,17,8.30
2014,11,10,09,18,8.30
2014,11,10,09,19,8.30
2014,11,10,09,20,8.30
2014,11,10,09,21,8.30
2014,11,10,09,22,8.30
2014,11,10,09,23,8.30
2014,11,10,09,24,8.30
2014,11,10,09,25,8.30
2014,11,10,09,26,8.30
2014,11,10,09,27,8.30
2014,11,10,09,28,8.30
2014,11,10,09,29,8.30
2014,11,10,09,30,8.40
2014,11,10,09,31,8.40
2014,11,10,09,32,8.40
2014,11,10,09,33,8.50
2014,11,10,09,34,8.50
2014,11,10,09,35,8.50
2014,11,10,09,36,8.60
2014,11,10,09,37,8.60
2014,11,10,09,38,8.70
2014,11,10,09,39,8.70
2014,11,10,09,40,8.80
2014,11,10,09,41,8.80
2014,11,10,09,42,8.80
2014,11,10,09,43,8.90
2014,11,10,09,44,8.90
2014,11,10,09,45,8.90
2014,11,10,09,46,9.00
2014,11,10,09,47,9.00
2014,11,10,09,48,9.10
2014,11,10,09,49,9.10
2014,11,10,09,50,9.10
2014,11,10,09,51,9.10
2014,11,10,09,52,9.10
2014,11,10,09,53,9.10
2014,11,10,09,54,9.00
2014,11,10,09,55,9.00
2014,11,10,09,56,9.10
2014,11,10,09,57,9.00
2014,11,10,09,58,9.10
2014,11,10,09,59,9.10
2014,11,10,10,00,9.10
2014,11,10,10,01,9.10
2014,11,10,10,02,9.10
2014,11,10,10,03,9.10
2014,11,10,10,04,9.00
2014,11,10,10,05,9.00
2014,11,10,10,06,9.00
2014,11,10,10,07,8.90
2014,11,10,10,08,8.90
2014,11,10,10,09,8.90
2014,11,10,10,10,8.80
2014,11,10,10,11,8.80
2014,11,10,10,12,8.80
2014,11,10,10,13,8.80
2014,11,10,10,14,8.80
2014,11,10,10,15,8.80
2014,11,10,10,16,8.80
2014,11,10,10,17,8.80
2014,11,10,10,18,8.80
2014,11,10,10,19,8.80
2014,11,10,10,20,8.80
2014,11,10,10,21,8.80
2014,11,10,10,22,8.80
2014,11,10,10,23,8.80
2014,11,10,10,24,8.80
2014,11,10,10,25,8.80
2014,11,10,10,26,8.80
2014,11,10,10,27,8.80
2014,11,10,10,28,8.80
2014,11,10,10,29,8.80
2014,11,10,10,30,8.80
2014,11,10,10,31,8.80
2014,11,10,10,32,8.80
2014,11,10,10,33,8.90
2014,11,10,10,34,8.90
2014,11,10,10,35,8.90
2014,11,10,10,36,8.90
2014,11,10,10,37,8.90
2014,11,10,10,38,9.00
2014,11,10,10,39,9.00
2014,11,10,10,40,9.00
2014,11,10,10,41,9.00
2014,11,10,10,42,9.00
2014,11,10,10,43,9.00
2014,11,10,10,44,9.00
2014,11,10,10,45,9.00
2014,11,10,10,46,9.10
2014,11,10,10,47,9.10
2014,11,10,10,48,9.10
2014,11,10,10,49,9.10
2014,11,10,10,50,9.10
2014,11,10,10,51,9.20
2014,11,10,10,52,9.20
2014,11,10,10,53,9.20
2014,11,10,10,54,9.20
2014,11,10,10,55,9.20
2014,11,10,10,56,9.30
2014,11,10,10,57,9.30
2014,11,10,10,58,9.30
2014,11,10,10,59,9.30
2014,11,10,11,00,9.30
2014,11,10,11,01,9.30
2014,11,10,11,02,9.30
2014,11,10,11,03,9.30
2014,11,10,11,04,9.30
2014,11,10,11,05,9.30
2014,11,10,11,06,9.30
2014,11,10,11,07,9.30
2014,11,10,11,08,9.30
2014,11,10,11,09,9.30
2014,11,10,11,10,9.40
2014,11,10,11,11,9.40
2014,11,10,11,12,9.40
2014,11,10,11,13,9.40
2014,11,10,11,14,9.40
2014,11,10,11,15,9.50
2014,11,10,11,16,9.50
2014,11,10,11,17,9.50
2014,11,10,11,18,9.50
2014,11,10,11,19,9.60
2014,11,10,11,20,9.60
2014,11,10,11,21,9.60
2014,11,10,11,22,9.60
2014,11,10,11,23,9.60
2014,11,10,11,24,9.60
2014,11,10,11,25,9.50
2014,11,10,11,26,9.50
2014,11,10,11,27,9.50
2014,11,10,11,28,9.50
2014,11,10,11,29,9.50
2014,11,10,11,30,9.50
2014,11,10,11,31,9.50
2014,11,10,11,32,9.50
2014,11,10,11,33,9.40
2014,11,10,11,34,9.40
2014,11,10,11,35,9.40
2014,11,10,11,36,9.50
2014,11,10,11,37,9.50
2014,11,10,11,38,9.50
2014,11,10,11,39,9.60
2014,11,10,11,40,9.50
2014,11,10,11,41,9.60
2014,11,10,11,42,9.60
2014,11,10,11,43,9.60
2014,11,10,11,44,9.60
2014,11,10,11,45,9.50
2014,11,10,11,46,9.50
2014,11,10,11,47,9.50
2014,11,10,11,48,9.50
2014,11,10,11,49,9.50
2014,11,10,11,50,9.50
2014,11,10,11,51,9.50
2014,11,10,11,52,9.50
2014,11,10,11,53,9.50
2014,11,10,11,54,9.50
2014,11,10,11,55,9.50
2014,11,10,11,56,9.50
2014,11,10,11,57,9.60
2014,11,10,11,58,9.60
2014,11,10,11,59,9.70
2014,11,10,12,00,9.70
2014,11,10,12,01,9.70
2014,11,10,12,02,9.70
2014,11,10,12,03,9.70
2014,11,10,12,04,9.70
2014,11,10,12,05,9.80
2014,11,10,12,06,9.80
2014,11,10,12,07,9.80
2014,11,10,12,08,9.80
2014,11,10,12,09,9.80
2014,11,10,12,10,9.90
2014,11,10,12,11,9.90
2014,11,10,12,12,9.90
2014,11,10,12,13,9.90
2014,11,10,12,14,9.90
2014,11,10,12,15,9.90
2014,11,10,12,16,9.90
2014,11,10,12,17,9.90
2014,11,10,12,18,9.90
2014,11,10,12,19,10.00
2014,11,10,12,20,10.00
2014,11,10,12,21,10.00
2014,11,10,12,22,10.00
2014,11,10,12,23,10.10
2014,11,10,12,24,10.10
2014,11,10,12,25,10.10
2014,11,10,12,26,10.10
2014,11,10,12,27,10.00
2014,11,10,12,28,10.00
2014,11,10,12,29,9.90
2014,11,10,12,30,9.90
2014,11,10,12,31,9.80
2014,11,10,12,32,9.80
2014,11,10,12,33,9.70
2014,11,10,12,34,9.70
2014,11,10,12,35,9.70
2014,11,10,12,36,9.70
2014,11,10,12,37,9.70
2014,11,10,12,38,9.60
2014,11,10,12,39,9.60
2014,11,10,12,40,9.60
2014,11,10,12,41,9.60
2014,11,10,12,42,9.60
2014,11,10,12,43,9.60
2014,11,10,12,44,9.50
2014,11,10,12,45,9.50
2014,11,10,12,46,9.50
2014,11,10,12,47,9.40
2014,11,10,12,48,9.40
2014,11,10,12,49,9.40
2014,11,10,12,50,9.40
2014,11,10,12,51,9.40
2014,11,10,12,52,9.30
2014,11,10,12,53,9.30
2014,11,10,12,54,9.30
2014,11,10,12,55,9.30
2014,11,10,12,56,9.30
2014,11,10,12,57,9.30
2014,11,10,12,58,9.30
2014,11,10,12,59,9.30
2014,11,10,13,00,9.30
2014,11,10,13,01,9.30
2014,11,10,13,02,9.30
2014,11,10,13,03,9.30
2014,11,10,13,04,9.30
2014,11,10,13,05,9.30
2014,11,10,13,06,9.30
2014,11,10,13,07,9.30
2014,11,10,13,08,9.30
2014,11,10,13,09,9.30
2014,11,10,13,10,9.30
2014,11,10,13,11,9.30
2014,11,10,13,12,9.30
2014,11,10,13,13,9.40
2014,11,10,13,14,9.40
2014,11,10,13,15,9.40
2014,11,10,13,16,9.50
2014,11,10,13,17,9.50
2014,11,10,13,18,9.60
2014,11,10,13,19,9.60
2014,11,10,13,20,9.70
2014,11,10,13,21,9.70
2014,11,10,13,22,9.70
2014,11,10,13,23,9.80
2014,11,10,13,24,9.80
2014,11,10,13,25,9.90
2014,11,10,13,26,9.90
2014,11,10,13,27,10.00
2014,11,10,13,28,10.00
2014,11,10,13,29,10.00
2014,11,10,13,30,10.10
2014,11,10,13,31,10.10
2014,11,10,13,32,10.20
2014,11,10,13,33,10.20
2014,11,10,13,34,10.20
2014,11,10,13,35,10.30
2014,11,10,13,36,10.30
2014,11,10,13,37,10.40
2014,11,10,13,38,10.30
2014,11,10,13,39,10.30
2014,11,10,13,40,10.30
2014,11,10,13,41,10.30
2014,11,10,13,42,10.40
2014,11,10,13,43,10.40
2014,11,10,13,44,10.50
2014,11,10,13,45,10.50
2014,11,10,13,46,10.60
2014,11,10,13,47,10.60
2014,11,10,13,48,10.60
2014,11,10,13,49,10.60
2014,11,10,13,50,10.70
2014,11,10,13,51,10.70
2014,11,10,13,52,10.70
2014,11,10,13,53,10.70
2014,11,10,13,54,10.70
2014,11,10,13,55,10.80
2014,11,10,13,56,10.80
2014,11,10,13,57,10.80
2014,11,10,13,58,10.80
2014,11,10,13,59,10.90
2014,11,10,14,00,10.90
2014,11,10,14,01,10.90
2014,11,10,14,02,10.90
2014,11,10,14,03,10.90
2014,11,10,14,04,11.00
2014,11,10,14,05,11.00
2014,11,10,14,06,11.00
2014,11,10,14,07,11.10
2014,11,10,14,08,11.10
2014,11,10,14,09,11.10
2014,11,10,14,10,11.10
2014,11,10,14,11,11.10
2014,11,10,14,12,11.10
2014,11,10,14,13,11.20
2014,11,10,14,14,11.20
2014,11,10,14,15,11.20
2014,11,10,14,16,11.20
2014,11,10,14,17,11.30
2014,11,10,14,18,11.30
2014,11,10,14,19,11.30
2014,11,10,14,20,11.30
2014,11,10,14,21,11.30
2014,11,10,14,22,11.40
2014,11,10,14,23,11.40
2014,11,10,14,24,11.40
2014,11,10,14,25,11.50
2014,11,10,14,26,11.50
2014,11,10,14,27,11.50
2014,11,10,14,28,11.50
2014,11,10,14,29,11.60
2014,11,10,14,30,11.60
2014,11,10,14,31,11.60
2014,11,10,14,32,11.70
2014,11,10,14,33,11.70
2014,11,10,14,34,11.70
2014,11,10,14,35,11.70
2014,11,10,14,36,11.70
2014,11,10,14,37,11.70
2014,11,10,14,38,11.70
2014,11,10,14,39,11.70
2014,11,10,14,40,11.70
2014,11,10,14,41,11.70
2014,11,10,14,42,11.70
2014,11,10,14,43,11.70
2014,11,10,14,44,11.80
2014,11,10,14,45,11.80
2014,11,10,14,46,11.80
2014,11,10,14,47,11.70
2014,11,10,14,48,11.70
2014,11,10,14,49,11.60
2014,11,10,14,50,11.60
2014,11,10,14,51,11.60
2014,11,10,14,52,11.50
2014,11,10,14,53,11.50
2014,11,10,14,54,11.40
2014,11,10,14,55,11.40
2014,11,10,14,56,11.40
2014,11,10,14,57,11.40
2014,11,10,14,58,11.30
2014,11,10,14,59,11.30
2014,11,10,15,00,11.20
2014,11,10,15,01,11.20
2014,11,10,15,02,11.20
2014,11,10,15,03,11.30
2014,11,10,15,04,11.30
2014,11,10,15,05,11.30
2014,11,10,15,06,11.30
2014,11,10,15,07,11.30
2014,11,10,15,08,11.20
2014,11,10,15,09,11.10
2014,11,10,15,10,11.10
2014,11,10,15,11,11.00
2014,11,10,15,12,10.90
2014,11,10,15,13,10.80
2014,11,10,15,14,10.80
2014,11,10,15,15,10.70
2014,11,10,15,16,10.70
2014,11,10,15,17,10.70
2014,11,10,15,18,10.60
2014,11,10,15,19,10.60
2014,11,10,15,20,10.60
2014,11,10,15,21,10.60
2014,11,10,15,22,10.60
2014,11,10,15,23,10.50
2014,11,10,15,24,10.50
2014,11,10,15,25,10.40
2014,11,10,15,26,10.40
2014,11,10,15,27,10.40
2014,11,10,15,28,10.40
2014,11,10,15,29,10.40
2014,11,10,15,30,10.40
2014,11,10,15,31,10.30
2014,11,10,15,32,10.30
2014,11,10,15,33,10.30
2014,11,10,15,34,10.30
2014,11,10,15,35,10.20
2014,11,10,15,36,10.20
2014,11,10,15,37,10.10
2014,11,10,15,38,10.10
2014,11,10,15,39,10.00
2014,11,10,15,40,10.00
2014,11,10,15,41,9.90
2014,11,10,15,42,9.90
2014,11,10,15,43,9.80
2014,11,10,15,44,9.80
2014,11,10,15,45,9.80
2014,11,10,15,46,9.70
2014,11,10,15,47,9.70
2014,11,10,15,48,9.70
2014,11,10,15,49,9.70
2014,11,10,15,50,9.60
2014,11,10,15,51,9.60
2014,11,10,15,52,9.60
2014,11,10,15,53,9.60
2014,11,10,15,54,9.60
2014,11,10,15,55,9.60
2014,11,10,15,56,9.60
2014,11,10,15,57,9.60
2014,11,10,15,58,9.50
2014,11,10,15,59,9.50
2014,11,10,16,00,9.50
2014,11,10,16,01,9.40
2014,11,10,16,02,9.40
2014,11,10,16,03,9.40
2014,11,10,16,04,9.40
2014,11,10,16,05,9.40
2014,11,10,16,06,9.40
2014,11,10,16,07,9.30
2014,11,10,16,08,9.30
2014,11,10,16,09,9.30
2014,11,10,16,10,9.30
2014,11,10,16,11,9.20
2014,11,10,16,12,9.20
2014,11,10,16,13,9.20
2014,11,10,16,14,9.20
2014,11,10,16,15,9.20
2014,11,10,16,16,9.10
2014,11,10,16,17,9.10
2014,11,10,16,18,9.10
2014,11,10,16,19,9.00
2014,11,10,16,20,9.00
2014,11,10,16,21,9.00
2014,11,10,16,22,9.00
2014,11,10,16,23,8.90
2014,11,10,16,24,8.90
2014,11,10,16,25,8.90
2014,11,10,16,26,8.80
2014,11,10,16,27,8.80
2014,11,10,16,28,8.80
2014,11,10,16,29,8.80
2014,11,10,16,30,8.80
2014,11,10,16,31,8.70
2014,11,10,16,32,8.70
2014,11,10,16,33,8.70
2014,11,10,16,34,8.60
2014,11,10,16,35,8.60
2014,11,10,16,36,8.60
2014,11,10,16,37,8.60
2014,11,10,16,38,8.50
2014,11,10,16,39,8.50
2014,11,10,16,40,8.50
2014,11,10,16,41,8.50
2014,11,10,16,42,8.40
2014,11,10,16,43,8.40
2014,11,10,16,44,8.40
2014,11,10,16,45,8.40
2014,11,10,16,46,8.30
2014,11,10,16,47,8.30
2014,11,10,16,48,8.30
2014,11,10,16,49,8.30
2014,11,10,16,50,8.30
2014,11,10,16,51,8.30
2014,11,10,16,52,8.30
2014,11,10,16,53,8.30
2014,11,10,16,54,8.30
2014,11,10,16,55,8.30
2014,11,10,16,56,8.20
2014,11,10,16,57,8.20
2014,11,10,16,58,8.20
2014,11,10,16,59,8.20
2014,11,10,17,00,8.20
2014,11,10,17,01,8.20
2014,11,10,17,02,8.20
2014,11,10,17,03,8.20
2014,11,10,17,04,8.20
2014,11,10,17,05,8.20
2014,11,10,17,06,8.20
2014,11,10,17,07,8.20
2014,11,10,17,08,8.10
2014,11,10,17,09,8.10
2014,11,10,17,10,8.10
2014,11,10,17,11,8.10
2014,11,10,17,12,8.10
2014,11,10,17,13,8.10
2014,11,10,17,14,8.00
2014,11,10,17,15,8.00
2014,11,10,17,16,8.00
2014,11,10,17,17,8.00
2014,11,10,17,18,7.90
2014,11,10,17,19,7.90
2014,11,10,17,20,7.90
2014,11,10,17,21,8.00
2014,11,10,17,22,8.00
2014,11,10,17,23,8.00
2014,11,10,17,24,7.90
2014,11,10,17,25,7.90
2014,11,10,17,26,7.90
2014,11,10,17,27,7.90
2014,11,10,17,28,7.90
2014,11,10,17,29,7.90
2014,11,10,17,30,7.90
2014,11,10,17,31,7.90
2014,11,10,17,32,7.90
2014,11,10,17,33,7.90
2014,11,10,17,34,7.90
2014,11,10,17,35,7.90
2014,11,10,17,36,7.90
2014,11,10,17,37,7.90
2014,11,10,17,38,7.90
2014,11,10,17,39,7.80
2014,11,10,17,40,7.80
2014,11,10,17,41,7.80
2014,11,10,17,42,7.80
2014,11,10,17,43,7.70
2014,11,10,17,44,7.70
2014,11,10,17,45,7.70
2014,11,10,17,46,7.60
2014,11,10,17,47,7.60
2014,11,10,17,48,7.60
2014,11,10,17,49,7.50
2014,11,10,17,50,7.50
2014,11,10,17,51,7.50
2014,11,10,17,52,7.40
2014,11,10,17,53,7.40
2014,11,10,17,54,7.30
2014,11,10,17,55,7.30
2014,11,10,17,56,7.30
2014,11,10,17,57,7.20
2014,11,10,17,58,7.20
2014,11,10,17,59,7.20
2014,11,10,18,00,7.10